Tiempo cada hora Dabrowskie

Hoy, 4 Agosto, Miércoles

Tiempo Temperatura Precipitaciones Viento Presión Humedad
00:00 +15°C° 0 mm 1 mps 749 mmHg 78%
01:00 +14°C° 0 mm 1 mps 749 mmHg 79%
02:00 +14°C° 0 mm 1 mps 749 mmHg 80%
03:00 +13°C° 0 mm 1 mps 749 mmHg 80%
04:00 +13°C° 0 mm 1 mps 749 mmHg 81%
05:00 +13°C° 0 mm 0 mps 749 mmHg 78%
06:00 +15°C° 0 mm 0 mps 749 mmHg 74%
07:00 +16°C° 0 mm 0 mps 749 mmHg 71%
08:00 +17°C° 0 mm 0 mps 749 mmHg 69%
09:00 +19°C° 0 mm 1 mps 750 mmHg 67%
10:00 +20°C° 0 mm 1 mps 750 mmHg 65%
11:00 +20°C° 0.2 mm 1 mps 750 mmHg 68%
12:00 +18°C° 0.2 mm 2 mps 750 mmHg 72%
13:00 +18°C° 0.2 mm 2 mps 749 mmHg 75%
14:00 +17°C° 0.8 mm 2 mps 749 mmHg 81%
15:00 +16°C° 0.8 mm 1 mps 749 mmHg 87%
16:00 +15°C° 0.8 mm 1 mps 749 mmHg 93%
17:00 +15°C° 0.2 mm 1 mps 749 mmHg 93%
18:00 +15°C° 0.2 mm 1 mps 749 mmHg 94%
19:00 +15°C° 0.2 mm 1 mps 749 mmHg 94%
20:00 +14°C° 0 mm 0 mps 749 mmHg 94%
21:00 +14°C° 0 mm 0 mps 749 mmHg 94%
22:00 +13°C° 0 mm 0 mps 749 mmHg 95%
23:00 +13°C° 0 mm 0 mps 749 mmHg 95%

Mañana, 5 Agosto, Jueves

Tiempo Temperatura Precipitaciones Viento Presión Humedad
00:00 +13°C° 0 mm 0 mps 749 mmHg 95%
01:00 +13°C° 0 mm 0 mps 749 mmHg 95%
02:00 +13°C° 0 mm 0 mps 749 mmHg 94%
03:00 +13°C° 0 mm 0 mps 749 mmHg 94%
04:00 +13°C° 0 mm 1 mps 749 mmHg 94%
05:00 +14°C° 0 mm 1 mps 749 mmHg 91%
06:00 +16°C° 0 mm 1 mps 749 mmHg 88%
07:00 +18°C° 0 mm 1 mps 749 mmHg 84%
08:00 +18°C° 0 mm 2 mps 748 mmHg 76%
09:00 +20°C° 0 mm 2 mps 748 mmHg 68%
10:00 +21°C° 0 mm 2 mps 748 mmHg 60%
11:00 +23°C° 0.1 mm 2 mps 748 mmHg 57%
12:00 +24°C° 0.1 mm 2 mps 748 mmHg 53%
13:00 +24°C° 0.1 mm 2 mps 747 mmHg 50%
14:00 +23°C° 0 mm 2 mps 747 mmHg 55%
15:00 +23°C° 0 mm 2 mps 747 mmHg 61%
16:00 +21°C° 0 mm 2 mps 747 mmHg 67%
17:00 +20°C° 0.1 mm 2 mps 747 mmHg 73%
18:00 +18°C° 0.1 mm 2 mps 747 mmHg 79%
19:00 +17°C° 0.1 mm 3 mps 747 mmHg 85%
20:00 +17°C° 0 mm 3 mps 746 mmHg 87%
21:00 +16°C° 0 mm 3 mps 746 mmHg 89%
22:00 +14°C° 0 mm 3 mps 746 mmHg 91%
23:00 +14°C° 0 mm 4 mps 745 mmHg 90%

Pasado mañana, 6 Agosto, Viernes

Tiempo Temperatura Precipitaciones Viento Presión Humedad
00:00 +14°C° 0 mm 4 mps 745 mmHg 89%
01:00 +13°C° 0 mm 4 mps 745 mmHg 88%
02:00 +13°C° 0 mm 4 mps 745 mmHg 88%
03:00 +13°C° 0 mm 5 mps 744 mmHg 87%
04:00 +13°C° 0 mm 5 mps 744 mmHg 86%
05:00 +13°C° 0 mm 5 mps 743 mmHg 87%
06:00 +13°C° 0 mm 5 mps 743 mmHg 88%
07:00 +13°C° 0 mm 6 mps 743 mmHg 89%
08:00 +13°C° 0.7 mm 6 mps 743 mmHg 90%
09:00 +14°C° 0.7 mm 5 mps 742 mmHg 91%
10:00 +14°C° 0.7 mm 5 mps 742 mmHg 92%
11:00 +14°C° 1.7 mm 5 mps 742 mmHg 93%
12:00 +14°C° 1.7 mm 5 mps 742 mmHg 94%
13:00 +14°C° 1.7 mm 5 mps 742 mmHg 95%
14:00 +14°C° 0.6 mm 5 mps 742 mmHg 94%
15:00 +14°C° 0.6 mm 4 mps 742 mmHg 94%
16:00 +14°C° 0.6 mm 4 mps 742 mmHg 94%
17:00 +14°C° 0.1 mm 3 mps 742 mmHg 94%
18:00 +14°C° 0.1 mm 3 mps 742 mmHg 95%
19:00 +15°C° 0.1 mm 2 mps 743 mmHg 95%
20:00 +15°C° 0 mm 2 mps 743 mmHg 95%
21:00 +15°C° 0 mm 2 mps 743 mmHg 94%
22:00 +14°C° 0 mm 2 mps 743 mmHg 94%
23:00 +14°C° 0 mm 2 mps 743 mmHg 94%

7 Agosto, Sábado

Tiempo Temperatura Precipitaciones Viento Presión Humedad
00:00 +14°C° 0 mm 2 mps 743 mmHg 94%
01:00 +14°C° 0 mm 2 mps 743 mmHg 94%
02:00 +14°C° 0 mm 2 mps 743 mmHg 94%
03:00 +13°C° 0 mm 3 mps 743 mmHg 94%
04:00 +13°C° 0 mm 3 mps 744 mmHg 94%
05:00 +14°C° 0 mm 3 mps 744 mmHg 90%
06:00 +16°C° 0 mm 3 mps 744 mmHg 87%
07:00 +17°C° 0 mm 3 mps 744 mmHg 83%
08:00 +19°C° 0 mm 4 mps 744 mmHg 75%
09:00 +20°C° 0 mm 4 mps 745 mmHg 67%
10:00 +21°C° 0 mm 5 mps 745 mmHg 59%
11:00 +22°C° 0 mm 5 mps 745 mmHg 55%
12:00 +23°C° 0 mm 4 mps 745 mmHg 51%
13:00 +25°C° 0 mm 4 mps 745 mmHg 47%
14:00 +25°C° 0 mm 4 mps 745 mmHg 48%
15:00 +25°C° 0 mm 4 mps 746 mmHg 49%
16:00 +25°C° 0 mm 4 mps 746 mmHg 50%
17:00 +22°C° 0 mm 3 mps 746 mmHg 57%
18:00 +20°C° 0 mm 3 mps 746 mmHg 63%
19:00 +19°C° 0 mm 3 mps 746 mmHg 70%
20:00 +18°C° 0 mm 3 mps 747 mmHg 70%
21:00 +18°C° 0 mm 3 mps 747 mmHg 71%
22:00 +17°C° 0 mm 3 mps 747 mmHg 71%
23:00 +17°C° 0 mm 3 mps 747 mmHg 74%

8 Agosto, Domingo

Tiempo Temperatura Precipitaciones Viento Presión Humedad
00:00 +16°C° 0 mm 3 mps 747 mmHg 76%
01:00 +16°C° 0 mm 3 mps 747 mmHg 79%
02:00 +14°C° 0 mm 3 mps 747 mmHg 81%
03:00 +14°C° 0 mm 3 mps 747 mmHg 82%
04:00 +14°C° 0 mm 3 mps 747 mmHg 83%
05:00 +17°C° 0 mm 4 mps 747 mmHg 80%
06:00 +18°C° 0 mm 4 mps 747 mmHg 76%
07:00 +20°C° 0 mm 5 mps 747 mmHg 72%
08:00 +21°C° 0.1 mm 5 mps 747 mmHg 73%
09:00 +21°C° 0.1 mm 5 mps 747 mmHg 74%
10:00 +22°C° 0.1 mm 5 mps 747 mmHg 75%
11:00 +22°C° 0 mm 5 mps 747 mmHg 74%
12:00 +22°C° 0 mm 4 mps 748 mmHg 73%
13:00 +22°C° 0 mm 4 mps 748 mmHg 73%
14:00 +24°C° 0 mm 3 mps 748 mmHg 71%
15:00 +24°C° 0 mm 3 mps 749 mmHg 69%
16:00 +24°C° 0 mm 2 mps 749 mmHg 67%
17:00 +23°C° 0.1 mm 2 mps 749 mmHg 71%
18:00 +21°C° 0.1 mm 2 mps 749 mmHg 74%
19:00 +21°C° 0.1 mm 1 mps 750 mmHg 78%
20:00 +21°C° 0 mm 1 mps 750 mmHg 79%
21:00 +20°C° 0 mm 1 mps 750 mmHg 81%
22:00 +20°C° 0 mm 1 mps 751 mmHg 82%
23:00 +19°C° 0 mm 1 mps 751 mmHg 83%

9 Agosto, Lunes

Tiempo Temperatura Precipitaciones Viento Presión Humedad
00:00 +19°C° 0 mm 1 mps 751 mmHg 83%
01:00 +18°C° 0 mm 1 mps 751 mmHg 84%
02:00 +18°C° 0 mm 1 mps 751 mmHg 84%
03:00 +17°C° 0 mm 2 mps 751 mmHg 83%
04:00 +17°C° 0 mm 2 mps 752 mmHg 83%
05:00 +18°C° 0 mm 2 mps 752 mmHg 78%
06:00 +19°C° 0 mm 2 mps 752 mmHg 74%
07:00 +20°C° 0 mm 2 mps 752 mmHg 69%
08:00 +23°C° 0 mm 2 mps 752 mmHg 61%
09:00 +24°C° 0 mm 2 mps 753 mmHg 54%
10:00 +26°C° 0 mm 2 mps 753 mmHg 47%
11:00 +27°C° 0 mm 2 mps 753 mmHg 44%
12:00 +27°C° 0 mm 2 mps 753 mmHg 42%
13:00 +28°C° 0 mm 2 mps 753 mmHg 39%
14:00 +27°C° 0 mm 2 mps 752 mmHg 43%
15:00 +26°C° 0 mm 2 mps 752 mmHg 48%
16:00 +26°C° 0 mm 2 mps 752 mmHg 52%
17:00 +24°C° 0 mm 2 mps 752 mmHg 59%
18:00 +21°C° 0 mm 2 mps 752 mmHg 66%
19:00 +20°C° 0 mm 1 mps 753 mmHg 72%
20:00 +19°C° 0 mm 2 mps 753 mmHg 75%
21:00 +18°C° 0 mm 2 mps 752 mmHg 77%
22:00 +18°C° 0 mm 2 mps 752 mmHg 79%
23:00 +17°C° 0 mm 2 mps 752 mmHg 80%
Mostrar más

Necesitamos Su Consentimiento

Meteoprog y nuestros Proveedores de Servicios pueden almacenar y acceder a sus datos personales como cookies, identificadores de dispositivo u otras tecnologías similares de su dispositivo y procesar dichos datos para personalizar contenido y anuncios, además de ofrecer funciones de redes sociales y analizar el tráfico.

  • Almacenar y/o acceder a información en su dispositivo

    Se puede almacenar o acceder a cookies, identificadores de dispositivo u otra información de su dispositivo para los fines anteriormente indicados.

  • Anuncios y contenido personalizados, medición de anuncios y contenido, percepciones del público, y desarrollo de productos

    Los anuncios y el contenido pueden personalizarse en base a su perfil. Se pueden añadir más datos para personalizar mejor los anuncios y contenidos. Se puede medir el rendimiento de los anuncios y contenidos. Se puede obtener la percepción sobre el público que ha visto los anuncios y contenidos. Dichos datos pueden usarse para desarrollar o mejorar la experiencia del usuario, sistemas y software.

Al hacer clic en ‘Estoy De Acuerdo’ usted permitirá el uso de las cookies, identificadores de dispositivo, balizas web u otras tecnologías similares indicadas. Su configuración puede cambiarse desde el navegador de su dispositivo.

Para ciertos fines, los intereses legítimos pueden ser considerados por encima del consentimiento. Puede leer más sobre ello en nuestra Política de Privacidad y Cookies.